Time,TemperatureF,DewpointF,PressureIn,WindDirection,WindDirectionDegrees,WindSpeedMPH,WindSpeedGustMPH,Humidity,HourlyPrecipIn,Conditions,Clouds,dailyrainin,SoftwareType,DateUTC
2013-07-01 00:02:00,67.8,58.5,28.90,SW,225,3.5,3.5,72,0.00,CLR,OVC,0.00,WeatherDisplay:10.37,2013-07-01 07:02:00,
2013-07-01 00:07:00,67.6,58.7,28.90,West,270,2.3,2.3,73,0.00,CLR,OVC,0.00,WeatherDisplay:10.37,2013-07-01 07:07:00,
2013-07-01 00:12:00,67.5,58.5,28.90,West,270,2.9,2.9,73,0.00,CLR,OVC,0.00,WeatherDisplay:10.37,2013-07-01 07:12:00,
2013-07-01 00:17:00,67.3,58.3,28.90,WNW,292,1.2,1.2,73,0.00,CLR,OVC,0.00,WeatherDisplay:10.37,2013-07-01 07:17:00,
2013-07-01 00:22:00,67.1,58.5,28.90,SW,225,1.2,1.2,74,0.00,CLR,OVC,0.00,WeatherDisplay:10.37,2013-07-01 07:22:00,
2013-07-01 00:27:00,66.9,58.4,28.90,West,270,2.3,2.3,74,0.00,CLR,OVC,0.00,WeatherDisplay:10.37,2013-07-01 07:27:00,
2013-07-01 00:32:00,66.7,58.2,28.90,WSW,248,1.4,1.4,74,0.00,CLR,OVC,0.00,WeatherDisplay:10.37,2013-07-01 07:32:00,
2013-07-01 00:37:00,66.6,58.0,28.90,West,270,4.6,4.6,74,0.00,CLR,OVC,0.00,WeatherDisplay:10.37,2013-07-01 07:37:00,
2013-07-01 00:42:00,66.4,58.2,28.89,SW,225,3.5,3.5,75,0.00,CLR,OVC,0.00,WeatherDisplay:10.37,2013-07-01 07:42:00,
2013-07-01 00:47:00,66.2,58.0,28.90,West,270,2.3,2.3,75,0.00,CLR,OVC,0.00,WeatherDisplay:10.37,2013-07-01 07:47:00,
2013-07-01 00:52:00,66.0,58.2,28.90,North,0,4.6,4.6,76,0.00,CLR,OVC,0.00,WeatherDisplay:10.37,2013-07-01 07:52:00,
2013-07-01 00:57:00,65.8,58.1,28.89,East,90,2.3,2.3,76,0.00,CLR,OVC,0.00,WeatherDisplay:10.37,2013-07-01 07:57:00,
2013-07-01 01:02:00,65.8,58.1,28.89,WSW,248,2.3,2.3,76,0.00,CLR,OVC,0.00,WeatherDisplay:10.37,2013-07-01 08:02:00,
2013-07-01 01:07:00,65.7,58.3,28.90,West,270,1.4,1.4,77,0.00,CLR,OVC,0.00,WeatherDisplay:10.37,2013-07-01 08:07:00,
2013-07-01 01:12:00,65.5,58.1,28.89,West,270,2.3,2.3,77,0.00,CLR,OVC,0.00,WeatherDisplay:10.37,2013-07-01 08:12:00,
2013-07-01 01:17:00,65.3,57.9,28.89,NNW,338,1.2,1.2,77,0.00,CLR,OVC,0.00,WeatherDisplay:10.37,2013-07-01 08:17:00,
2013-07-01 01:22:00,65.1,58.4,28.89,NW,315,5.8,5.8,79,0.00,CLR,OVC,0.00,WeatherDisplay:10.37,2013-07-01 08:22:00,
2013-07-01 01:27:00,64.9,57.6,28.89,NW,315,2.3,2.3,77,0.00,CLR,OVC,0.00,WeatherDisplay:10.37,2013-07-01 08:27:00,
2013-07-01 01:32:00,64.8,57.7,28.89,ESE,112,1.6,1.6,78,0.00,CLR,OVC,0.00,WeatherDisplay:10.37,2013-07-01 08:32:00,
2013-07-01 01:37:00,64.6,57.6,28.89,East,90,2.3,2.3,78,0.00,CLR,OVC,0.00,WeatherDisplay:10.37,2013-07-01 08:37:00,
2013-07-01 01:42:00,64.6,57.6,28.89,West,270,2.3,2.3,78,0.00,CLR,OVC,0.00,WeatherDisplay:10.37,2013-07-01 08:42:00,
2013-07-01 01:47:00,64.4,58.1,28.89,West,270,2.6,2.6,80,0.00,CLR,OVC,0.00,WeatherDisplay:10.37,2013-07-01 08:47:00,
2013-07-01 01:52:00,64.2,57.6,28.89,ESE,112,1.2,1.2,79,0.00,CLR,OVC,0.00,WeatherDisplay:10.37,2013-07-01 08:52:00,
2013-07-01 01:57:00,64.0,57.4,28.89,WSW,248,1.2,1.2,79,0.00,CLR,OVC,0.00,WeatherDisplay:10.37,2013-07-01 08:57:00,
2013-07-01 02:02:00,63.9,57.6,28.89,South,180,4.6,4.6,80,0.00,CLR,OVC,0.00,WeatherDisplay:10.37,2013-07-01 09:02:00,
2013-07-01 02:07:00,63.7,57.4,28.89,WNW,292,2.3,2.3,80,0.00,CLR,OVC,0.00,WeatherDisplay:10.37,2013-07-01 09:07:00,
2013-07-01 02:12:00,63.7,57.0,28.89,ENE,68,2.3,2.3,79,0.00,CLR,OVC,0.00,WeatherDisplay:10.37,2013-07-01 09:12:00,
2013-07-01 02:17:00,63.5,56.9,28.89,North,0,2.3,2.3,79,0.00,CLR,OVC,0.00,WeatherDisplay:10.37,2013-07-01 09:17:00,
2013-07-01 02:22:00,63.5,56.9,28.89,West,270,1.2,1.6,79,0.00,CLR,OVC,0.00,WeatherDisplay:10.37,2013-07-01 09:22:00,
2013-07-01 02:27:00,63.3,56.7,28.89,NE,45,1.2,1.2,79,0.00,CLR,OVC,0.00,WeatherDisplay:10.37,2013-07-01 09:27:00,
2013-07-01 02:32:00,63.1,56.9,28.89,WSW,248,1.8,1.8,80,0.00,CLR,OVC,0.00,WeatherDisplay:10.37,2013-07-01 09:32:00,
2013-07-01 02:37:00,63.1,57.2,28.89,WSW,248,4.9,4.9,81,0.00,CLR,OVC,0.00,WeatherDisplay:10.37,2013-07-01 09:37:00,
2013-07-01 02:42:00,63.0,56.7,28.90,West,270,2.3,2.3,80,0.00,CLR,OVC,0.00,WeatherDisplay:10.37,2013-07-01 09:42:00,
2013-07-01 02:47:00,63.0,57.4,28.89,ENE,68,4.6,4.6,82,0.00,CLR,OVC,0.00,WeatherDisplay:10.37,2013-07-01 09:47:00,
2013-07-01 02:52:00,62.6,56.7,28.89,WSW,248,1.2,1.2,81,0.00,CLR,OVC,0.00,WeatherDisplay:10.37,2013-07-01 09:52:00,
2013-07-01 02:57:00,62.6,57.0,28.89,ESE,112,2.0,2.0,82,0.00,CLR,OVC,0.00,WeatherDisplay:10.37,2013-07-01 09:57:00,
2013-07-01 03:02:00,62.4,56.9,28.90,ESE,112,2.3,2.3,82,0.00,CLR,OVC,0.00,WeatherDisplay:10.37,2013-07-01 10:02:00,
2013-07-01 03:07:00,62.2,56.7,28.90,SW,225,1.2,1.2,82,0.00,CLR,OVC,0.00,WeatherDisplay:10.37,2013-07-01 10:07:00,
2013-07-01 03:12:00,62.1,56.8,28.90,NNE,22,4.6,4.6,83,0.00,CLR,OVC,0.00,WeatherDisplay:10.37,2013-07-01 10:12:00,
2013-07-01 03:17:00,61.9,57.3,28.90,WNW,292,4.7,4.7,85,0.00,CLR,OVC,0.00,WeatherDisplay:10.37,2013-07-01 10:17:00,
2013-07-01 03:22:00,61.9,57.3,28.91,WNW,292,2.9,2.9,85,0.00,CLR,OVC,0.00,WeatherDisplay:10.37,2013-07-01 10:22:00,
2013-07-01 03:27:00,61.7,56.8,28.91,ESE,112,2.3,2.3,84,0.00,CLR,OVC,0.00,WeatherDisplay:10.37,2013-07-01 10:27:00,
2013-07-01 03:32:00,61.5,56.6,28.91,West,270,1.8,1.8,84,0.00,CLR,OVC,0.00,WeatherDisplay:10.37,2013-07-01 10:32:00,
2013-07-01 03:37:00,61.5,56.6,28.91,NNW,338,1.2,1.2,84,0.00,CLR,OVC,0.00,WeatherDisplay:10.37,2013-07-01 10:37:00,
2013-07-01 03:42:00,61.5,57.0,28.90,SW,225,3.5,3.5,85,0.00,CLR,OVC,0.00,WeatherDisplay:10.37,2013-07-01 10:42:00,
2013-07-01 03:47:00,61.3,56.5,28.91,East,90,2.3,2.3,84,0.00,CLR,OVC,0.00,WeatherDisplay:10.37,2013-07-01 10:47:00,
2013-07-01 03:52:00,61.2,56.3,28.91,SE,135,1.2,1.2,84,0.00,CLR,OVC,0.00,WeatherDisplay:10.37,2013-07-01 10:52:00,
2013-07-01 03:57:00,61.2,56.6,28.91,ESE,112,2.3,2.3,85,0.00,CLR,OVC,0.00,WeatherDisplay:10.37,2013-07-01 10:57:00,
2013-07-01 04:02:00,61.0,56.8,28.91,West,270,2.3,2.3,86,0.00,CLR,OVC,0.00,WeatherDisplay:10.37,2013-07-01 11:02:00,
2013-07-01 04:07:00,60.8,56.6,28.91,WSW,248,4.6,4.6,86,0.00,CLR,OVC,0.00,WeatherDisplay:10.37,2013-07-01 11:07:00,
2013-07-01 04:12:00,60.8,56.6,28.91,SW,225,3.5,3.5,86,0.00,CLR,OVC,0.00,WeatherDisplay:10.37,2013-07-01 11:12:00,
2013-07-01 04:17:00,60.8,56.6,28.90,South,180,1.2,1.2,86,0.00,CLR,OVC,0.00,WeatherDisplay:10.37,2013-07-01 11:17:00,
2013-07-01 04:23:00,60.8,56.6,28.90,NW,315,2.3,2.3,86,0.00,CLR,OVC,0.00,WeatherDisplay:10.37,2013-07-01 11:23:00,
2013-07-01 04:28:00,60.8,56.9,28.90,WNW,292,3.5,3.5,87,0.00,CLR,OVC,0.00,WeatherDisplay:10.37,2013-07-01 11:28:00,
2013-07-01 04:33:00,60.8,57.2,28.90,WNW,292,5.8,5.8,88,0.00,CLR,OVC,0.00,WeatherDisplay:10.37,2013-07-01 11:33:00,
2013-07-01 04:38:00,60.6,57.4,28.90,West,270,5.8,5.8,89,0.00,CLR,OVC,0.00,WeatherDisplay:10.37,2013-07-01 11:38:00,
2013-07-01 04:43:00,60.6,57.0,28.90,SW,225,2.3,2.3,88,0.00,CLR,OVC,0.00,WeatherDisplay:10.37,2013-07-01 11:43:00,
2013-07-01 04:48:00,60.4,56.9,28.90,WNW,292,2.3,2.3,88,0.00,CLR,OVC,0.00,WeatherDisplay:10.37,2013-07-01 11:48:00,
2013-07-01 04:53:00,60.4,56.9,28.91,NW,315,2.3,2.3,88,0.00,CLR,OVC,0.00,WeatherDisplay:10.37,2013-07-01 11:53:00,
2013-07-01 04:58:00,60.4,56.9,28.91,West,270,2.4,2.4,88,0.00,CLR,OVC,0.00,WeatherDisplay:10.37,2013-07-01 11:58:00,
2013-07-01 05:03:00,60.3,56.7,28.91,West,270,2.3,2.3,88,0.00,CLR,OVC,0.00,WeatherDisplay:10.37,2013-07-01 12:03:00,
2013-07-01 05:08:00,60.3,57.0,28.91,ESE,112,4.6,4.6,89,0.00,CLR,OVC,0.00,WeatherDisplay:10.37,2013-07-01 12:08:00,
2013-07-01 05:13:00,60.1,56.5,28.91,NW,315,1.2,1.4,88,0.00,CLR,OVC,0.00,WeatherDisplay:10.37,2013-07-01 12:13:00,
2013-07-01 05:18:00,60.1,56.5,28.91,WSW,248,2.3,2.3,88,0.00,CLR,OVC,0.00,WeatherDisplay:10.37,2013-07-01 12:18:00,
2013-07-01 05:23:00,59.9,56.6,28.91,WSW,248,3.6,3.6,89,0.00,CLR,OVC,0.00,WeatherDisplay:10.37,2013-07-01 12:23:00,
2013-07-01 05:28:00,59.9,56.6,28.91,West,270,2.3,2.3,89,0.00,CLR,OVC,0.00,WeatherDisplay:10.37,2013-07-01 12:28:00,
2013-07-01 05:33:00,59.9,56.6,28.91,ESE,112,2.3,2.3,89,0.00,CLR,OVC,0.00,WeatherDisplay:10.37,2013-07-01 12:33:00,
2013-07-01 05:38:00,59.9,57.0,28.92,West,270,4.6,4.6,90,0.00,CLR,OVC,0.00,WeatherDisplay:10.37,2013-07-01 12:38:00,
2013-07-01 05:43:00,59.9,56.6,28.92,NNW,338,1.6,1.6,89,0.00,CLR,OVC,0.00,WeatherDisplay:10.37,2013-07-01 12:43:00,
2013-07-01 05:48:00,59.7,56.5,28.92,NE,45,2.3,2.3,89,0.00,CLR,OVC,0.00,WeatherDisplay:10.37,2013-07-01 12:48:00,
2013-07-01 05:53:00,59.7,56.5,28.92,WNW,292,1.6,1.6,89,0.00,CLR,OVC,0.00,WeatherDisplay:10.37,2013-07-01 12:53:00,
2013-07-01 05:58:00,59.7,56.5,28.92,WNW,292,2.3,2.3,89,0.00,CLR,OVC,0.00,WeatherDisplay:10.37,2013-07-01 12:58:00,
2013-07-01 06:03:00,59.7,56.8,28.92,West,270,2.3,2.3,90,0.00,CLR,OVC,0.00,WeatherDisplay:10.37,2013-07-01 13:03:00,
2013-07-01 06:08:00,59.7,56.8,28.92,ENE,68,4.6,4.6,90,0.00,CLR,OVC,0.00,WeatherDisplay:10.37,2013-07-01 13:08:00,
2013-07-01 06:13:00,59.7,56.8,28.92,NE,45,2.3,2.3,90,0.00,CLR,OVC,0.00,WeatherDisplay:10.37,2013-07-01 13:13:00,
2013-07-01 06:18:00,59.9,57.0,28.92,WNW,292,2.6,2.6,90,0.00,CLR,OVC,0.00,WeatherDisplay:10.37,2013-07-01 13:18:00,
2013-07-01 06:23:00,59.9,57.0,28.92,NNE,22,3.5,3.5,90,0.00,CLR,OVC,0.00,WeatherDisplay:10.37,2013-07-01 13:23:00,
2013-07-01 06:28:00,59.9,57.0,28.92,WNW,292,1.2,1.2,90,0.00,CLR,OVC,0.00,WeatherDisplay:10.37,2013-07-01 13:28:00,
2013-07-01 06:33:00,59.9,57.0,28.92,NNW,338,1.2,2.4,90,0.00,CLR,OVC,0.00,WeatherDisplay:10.37,2013-07-01 13:33:00,
2013-07-01 06:38:00,60.1,57.1,28.92,West,270,2.3,2.3,90,0.00,CLR,OVC,0.00,WeatherDisplay:10.37,2013-07-01 13:38:00,
2013-07-01 06:43:00,60.1,57.1,28.91,West,270,2.9,2.9,90,0.00,CLR,OVC,0.00,WeatherDisplay:10.37,2013-07-01 13:43:00,
2013-07-01 06:48:00,60.1,57.1,28.91,WNW,292,2.6,2.6,90,0.00,CLR,OVC,0.00,WeatherDisplay:10.37,2013-07-01 13:48:00,
2013-07-01 06:53:00,60.3,57.3,28.92,WSW,248,5.8,5.8,90,0.00,CLR,OVC,0.00,WeatherDisplay:10.37,2013-07-01 13:53:00,
2013-07-01 06:58:00,60.3,57.3,28.92,WNW,292,2.3,4.7,90,0.00,CLR,OVC,0.00,WeatherDisplay:10.37,2013-07-01 13:58:00,
2013-07-01 07:03:00,60.4,57.5,28.92,WSW,248,3.5,3.5,90,0.00,CLR,OVC,0.00,WeatherDisplay:10.37,2013-07-01 14:03:00,
2013-07-01 07:08:00,60.4,57.5,28.92,NW,315,3.5,3.5,90,0.00,CLR,OVC,0.00,WeatherDisplay:10.37,2013-07-01 14:08:00,
2013-07-01 07:13:00,60.6,57.4,28.93,SW,225,1.2,1.2,89,0.00,CLR,OVC,0.00,WeatherDisplay:10.37,2013-07-01 14:13:00,
2013-07-01 07:18:00,60.8,57.5,28.93,West,270,1.2,1.2,89,0.00,CLR,OVC,0.00,WeatherDisplay:10.37,2013-07-01 14:18:00,
2013-07-01 07:23:00,61.2,57.9,28.93,SSW,202,1.2,1.2,89,0.00,CLR,OVC,0.00,WeatherDisplay:10.37,2013-07-01 14:23:00,
2013-07-01 07:28:00,61.3,57.8,28.93,WSW,248,2.3,2.3,88,0.00,CLR,OVC,0.00,WeatherDisplay:10.37,2013-07-01 14:28:00,
2013-07-01 07:33:00,61.5,57.9,28.93,WSW,248,2.3,2.3,88,0.00,CLR,OVC,0.00,WeatherDisplay:10.37,2013-07-01 14:33:00,
2013-07-01 07:38:00,61.5,57.9,28.92,WNW,292,2.4,2.4,88,0.00,CLR,OVC,0.00,WeatherDisplay:10.37,2013-07-01 14:38:00,
2013-07-01 07:43:00,61.5,57.9,28.92,SW,225,4.6,4.6,88,0.00,CLR,OVC,0.00,WeatherDisplay:10.37,2013-07-01 14:43:00,
2013-07-01 07:48:00,62.8,59.2,28.92,WSW,248,2.3,2.3,88,0.00,CLR,OVC,0.00,WeatherDisplay:10.37,2013-07-01 14:48:00,
2013-07-01 07:53:00,65.3,61.0,28.92,West,270,2.4,2.4,86,0.00,CLR,OVC,0.00,WeatherDisplay:10.37,2013-07-01 14:53:00,
2013-07-01 07:58:00,67.1,61.4,28.92,NE,45,3.5,3.5,82,0.00,CLR,OVC,0.00,WeatherDisplay:10.37,2013-07-01 14:58:00,
2013-07-01 08:03:00,68.2,61.4,28.92,WSW,248,3.5,3.5,79,0.00,CLR,OVC,0.00,WeatherDisplay:10.37,2013-07-01 15:03:00,
2013-07-01 08:08:00,69.3,62.1,28.93,WSW,248,2.3,2.3,78,0.00,CLR,OVC,0.00,WeatherDisplay:10.37,2013-07-01 15:08:00,
2013-07-01 08:13:00,70.5,62.2,28.93,SW,225,2.3,2.3,75,0.00,CLR,OVC,0.00,WeatherDisplay:10.37,2013-07-01 15:13:00,
2013-07-01 08:18:00,71.8,63.0,28.93,NE,45,1.2,1.2,74,0.00,CLR,OVC,0.00,WeatherDisplay:10.37,2013-07-01 15:18:00,
2013-07-01 08:23:00,73.0,63.5,28.94,SE,135,1.8,1.8,72,0.00,CLR,OVC,0.00,WeatherDisplay:10.37,2013-07-01 15:23:00,
2013-07-01 08:28:00,73.9,63.9,28.94,South,180,2.3,2.3,71,0.00,CLR,OVC,0.00,WeatherDisplay:10.37,2013-07-01 15:28:00,
2013-07-01 08:33:00,74.8,64.0,28.94,West,270,2.3,2.3,69,0.00,CLR,OVC,0.00,WeatherDisplay:10.37,2013-07-01 15:33:00,
2013-07-01 08:38:00,75.9,63.7,28.94,WSW,248,2.3,2.3,66,0.00,CLR,OVC,0.00,WeatherDisplay:10.37,2013-07-01 15:38:00,
2013-07-01 08:43:00,76.8,64.6,28.94,West,270,2.3,2.3,66,0.00,CLR,OVC,0.00,WeatherDisplay:10.37,2013-07-01 15:43:00,
2013-07-01 08:48:00,76.6,62.6,28.94,West,270,4.6,4.6,62,0.00,CLR,OVC,0.00,WeatherDisplay:10.37,2013-07-01 15:48:00,
2013-07-01 08:54:00,76.8,62.8,28.94,SW,225,3.5,3.5,62,0.00,CLR,OVC,0.00,WeatherDisplay:10.37,2013-07-01 15:54:00,
2013-07-01 08:59:00,76.6,62.2,28.94,West,270,4.6,4.6,61,0.00,CLR,OVC,0.00,WeatherDisplay:10.37,2013-07-01 15:59:00,
2013-07-01 09:04:00,75.7,61.8,28.94,West,270,3.5,3.5,62,0.00,CLR,OVC,0.00,WeatherDisplay:10.37,2013-07-01 16:04:00,
2013-07-01 09:09:00,75.4,61.9,28.94,West,270,2.4,2.4,63,0.00,CLR,OVC,0.00,WeatherDisplay:10.37,2013-07-01 16:09:00,
2013-07-01 09:14:00,75.9,62.4,28.94,WSW,248,4.6,4.6,63,0.00,CLR,OVC,0.00,WeatherDisplay:10.37,2013-07-01 16:14:00,
2013-07-01 09:19:00,76.6,62.6,28.94,WSW,248,1.8,1.8,62,0.00,CLR,OVC,0.00,WeatherDisplay:10.37,2013-07-01 16:19:00,
2013-07-01 09:24:00,77.0,63.0,28.94,West,270,2.4,2.4,62,0.00,CLR,OVC,0.00,WeatherDisplay:10.37,2013-07-01 16:24:00,
2013-07-01 09:29:00,77.0,62.5,28.94,WSW,248,4.6,4.6,61,0.00,CLR,OVC,0.00,WeatherDisplay:10.37,2013-07-01 16:29:00,
2013-07-01 09:34:00,77.0,62.5,28.94,WSW,248,3.5,3.5,61,0.00,CLR,OVC,0.00,WeatherDisplay:10.37,2013-07-01 16:34:00,
2013-07-01 09:39:00,77.2,63.2,28.94,SW,225,2.3,2.3,62,0.00,CLR,OVC,0.00,WeatherDisplay:10.37,2013-07-01 16:39:00,
2013-07-01 09:44:00,77.7,63.7,28.94,WSW,248,2.3,2.3,62,0.00,CLR,OVC,0.00,WeatherDisplay:10.37,2013-07-01 16:44:00,
2013-07-01 09:49:00,78.6,64.0,28.94,SSW,202,1.2,1.2,61,0.00,CLR,OVC,0.00,WeatherDisplay:10.37,2013-07-01 16:49:00,
2013-07-01 09:54:00,79.7,63.6,28.94,West,270,4.6,4.6,58,0.00,CLR,OVC,0.00,WeatherDisplay:10.37,2013-07-01 16:54:00,
2013-07-01 09:59:00,79.5,63.4,28.94,WSW,248,3.5,3.5,58,0.00,CLR,OVC,0.00,WeatherDisplay:10.37,2013-07-01 16:59:00,
2013-07-01 10:04:00,79.3,63.3,28.94,West,270,2.3,2.3,58,0.00,CLR,OVC,0.00,WeatherDisplay:10.37,2013-07-01 17:04:00,
2013-07-01 10:09:00,79.2,63.6,28.94,West,270,2.3,2.3,59,0.00,CLR,OVC,0.00,WeatherDisplay:10.37,2013-07-01 17:09:00,
2013-07-01 10:14:00,79.5,63.9,28.94,WSW,248,2.3,2.3,59,0.00,CLR,OVC,0.00,WeatherDisplay:10.37,2013-07-01 17:14:00,
2013-07-01 10:19:00,79.9,63.8,28.94,WSW,248,3.5,3.5,58,0.00,CLR,OVC,0.00,WeatherDisplay:10.37,2013-07-01 17:19:00,
2013-07-01 10:24:00,79.9,63.8,28.95,SSW,202,3.5,3.5,58,0.00,CLR,OVC,0.00,WeatherDisplay:10.37,2013-07-01 17:24:00,
2013-07-01 10:29:00,80.4,64.3,28.95,SSW,202,2.3,2.3,58,0.00,CLR,OVC,0.00,WeatherDisplay:10.37,2013-07-01 17:29:00,
2013-07-01 10:34:00,80.8,64.6,28.94,SW,225,2.9,2.9,58,0.00,CLR,OVC,0.00,WeatherDisplay:10.37,2013-07-01 17:34:00,
2013-07-01 10:39:00,81.5,64.3,28.94,West,270,2.3,2.3,56,0.00,CLR,OVC,0.00,WeatherDisplay:10.37,2013-07-01 17:39:00,
2013-07-01 10:44:00,81.7,64.5,28.94,WSW,248,3.5,3.5,56,0.00,CLR,OVC,0.00,WeatherDisplay:10.37,2013-07-01 17:44:00,
2013-07-01 10:49:00,81.3,64.1,28.95,WNW,292,2.3,2.3,56,0.00,CLR,OVC,0.00,WeatherDisplay:10.37,2013-07-01 17:49:00,
2013-07-01 10:54:00,81.3,64.1,28.95,NW,315,3.3,3.3,56,0.00,CLR,OVC,0.00,WeatherDisplay:10.37,2013-07-01 17:54:00,
2013-07-01 10:59:00,81.0,63.8,28.95,SW,225,2.3,2.3,56,0.00,CLR,OVC,0.00,WeatherDisplay:10.37,2013-07-01 17:59:00,
2013-07-01 11:04:00,81.7,65.0,28.95,West,270,3.6,3.6,57,0.00,CLR,OVC,0.00,WeatherDisplay:10.37,2013-07-01 18:04:00,
2013-07-01 11:09:00,82.0,64.8,28.95,SW,225,3.5,3.5,56,0.00,CLR,OVC,0.00,WeatherDisplay:10.37,2013-07-01 18:09:00,
2013-07-01 11:14:00,82.0,65.3,28.95,SW,225,4.6,4.6,57,0.00,CLR,OVC,0.00,WeatherDisplay:10.37,2013-07-01 18:14:00,
2013-07-01 11:19:00,82.2,65.0,28.95,West,270,2.3,2.3,56,0.00,CLR,OVC,0.00,WeatherDisplay:10.37,2013-07-01 18:19:00,
2013-07-01 11:24:00,82.2,64.4,28.95,SSW,202,3.5,3.5,55,0.00,CLR,OVC,0.00,WeatherDisplay:10.37,2013-07-01 18:24:00,
2013-07-01 11:29:00,82.0,64.3,28.95,South,180,2.3,2.3,55,0.00,CLR,OVC,0.00,WeatherDisplay:10.37,2013-07-01 18:29:00,
2013-07-01 11:34:00,82.2,65.0,28.95,WSW,248,4.6,4.6,56,0.00,CLR,OVC,0.00,WeatherDisplay:10.37,2013-07-01 18:34:00,
2013-07-01 11:39:00,82.4,65.6,28.95,NNW,338,3.5,3.5,57,0.00,CLR,OVC,0.00,WeatherDisplay:10.37,2013-07-01 18:39:00,
2013-07-01 11:44:00,83.1,65.3,28.95,WSW,248,2.3,2.3,55,0.00,CLR,OVC,0.00,WeatherDisplay:10.37,2013-07-01 18:44:00,
2013-07-01 11:49:00,83.5,65.6,28.94,West,270,2.9,2.9,55,0.00,CLR,OVC,0.00,WeatherDisplay:10.37,2013-07-01 18:49:00,
2013-07-01 11:54:00,83.8,65.9,28.94,WSW,248,3.5,3.5,55,0.00,CLR,OVC,0.00,WeatherDisplay:10.37,2013-07-01 18:54:00,
2013-07-01 11:59:00,84.0,66.1,28.94,SW,225,4.6,4.6,55,0.00,CLR,OVC,0.00,WeatherDisplay:10.37,2013-07-01 18:59:00,
2013-07-01 12:04:00,83.7,64.7,28.94,West,270,4.7,4.7,53,0.00,CLR,OVC,0.00,WeatherDisplay:10.37,2013-07-01 19:04:00,
2013-07-01 12:09:00,83.3,65.4,28.94,SW,225,3.5,3.5,55,0.00,CLR,OVC,0.00,WeatherDisplay:10.37,2013-07-01 19:09:00,
2013-07-01 12:15:00,83.7,65.8,28.95,SW,225,2.3,2.3,55,0.00,CLR,OVC,0.00,WeatherDisplay:10.37,2013-07-01 19:15:00,
2013-07-01 12:20:00,84.6,65.5,28.94,West,270,3.6,3.6,53,0.00,CLR,OVC,0.00,WeatherDisplay:10.37,2013-07-01 19:20:00,
2013-07-01 12:25:00,84.4,65.9,28.95,WSW,248,2.3,2.4,54,0.00,CLR,OVC,0.00,WeatherDisplay:10.37,2013-07-01 19:25:00,
2013-07-01 12:30:00,84.4,65.4,28.95,WSW,248,4.6,4.6,53,0.00,CLR,OVC,0.00,WeatherDisplay:10.37,2013-07-01 19:30:00,
2013-07-01 12:35:00,84.0,65.6,28.95,West,270,5.8,5.8,54,0.00,CLR,OVC,0.00,WeatherDisplay:10.37,2013-07-01 19:35:00,
2013-07-01 12:40:00,83.8,65.9,28.95,WSW,248,2.3,2.3,55,0.00,CLR,OVC,0.00,WeatherDisplay:10.37,2013-07-01 19:40:00,
2013-07-01 12:45:00,85.1,66.6,28.95,NW,315,2.3,2.3,54,0.00,CLR,OVC,0.00,WeatherDisplay:10.37,2013-07-01 19:45:00,
2013-07-01 12:50:00,85.5,65.8,28.95,WSW,248,5.8,5.8,52,0.00,CLR,OVC,0.00,WeatherDisplay:10.37,2013-07-01 19:50:00,
2013-07-01 12:55:00,85.3,66.2,28.95,SSW,202,3.5,3.5,53,0.00,CLR,OVC,0.00,WeatherDisplay:10.37,2013-07-01 19:55:00,
2013-07-01 13:00:00,84.9,65.9,28.95,WSW,248,4.6,4.6,53,0.00,CLR,OVC,0.00,WeatherDisplay:10.37,2013-07-01 20:00:00,
2013-07-01 13:05:00,84.9,66.4,28.95,SSW,202,4.6,4.6,54,0.00,CLR,OVC,0.00,WeatherDisplay:10.37,2013-07-01 20:05:00,
2013-07-01 13:10:00,85.8,66.7,28.95,SSW,202,4.6,4.6,53,0.00,CLR,OVC,0.00,WeatherDisplay:10.37,2013-07-01 20:10:00,
2013-07-01 13:15:00,86.0,66.3,28.95,West,270,4.6,4.6,52,0.00,CLR,OVC,0.00,WeatherDisplay:10.37,2013-07-01 20:15:00,
2013-07-01 13:20:00,85.1,65.5,28.95,West,270,4.9,4.9,52,0.00,CLR,OVC,0.00,WeatherDisplay:10.37,2013-07-01 20:20:00,
2013-07-01 13:25:00,85.3,67.3,28.95,WSW,248,2.4,2.4,55,0.00,CLR,OVC,0.00,WeatherDisplay:10.37,2013-07-01 20:25:00,
2013-07-01 13:30:00,86.2,68.1,28.95,NW,315,2.3,2.4,55,0.00,CLR,OVC,0.00,WeatherDisplay:10.37,2013-07-01 20:30:00,
2013-07-01 13:35:00,86.7,66.4,28.95,West,270,5.8,5.8,51,0.00,CLR,OVC,0.00,WeatherDisplay:10.37,2013-07-01 20:35:00,
2013-07-01 13:40:00,86.2,66.5,28.95,WNW,292,4.6,4.6,52,0.00,CLR,OVC,0.00,WeatherDisplay:10.37,2013-07-01 20:40:00,
2013-07-01 13:45:00,86.4,67.2,28.95,West,270,4.6,4.6,53,0.00,CLR,OVC,0.00,WeatherDisplay:10.37,2013-07-01 20:45:00,
2013-07-01 13:50:00,86.5,66.3,28.95,West,270,4.6,4.6,51,0.00,CLR,OVC,0.00,WeatherDisplay:10.37,2013-07-01 20:50:00,
2013-07-01 13:55:00,86.4,66.7,28.95,WNW,292,4.7,4.7,52,0.00,CLR,OVC,0.00,WeatherDisplay:10.37,2013-07-01 20:55:00,
2013-07-01 14:00:00,86.4,67.2,28.95,WSW,248,4.6,4.6,53,0.00,CLR,OVC,0.00,WeatherDisplay:10.37,2013-07-01 21:00:00,
2013-07-01 14:05:00,86.9,67.7,28.95,WSW,248,2.3,2.3,53,0.00,CLR,OVC,0.00,WeatherDisplay:10.37,2013-07-01 21:05:00,
2013-07-01 14:10:00,87.4,67.1,28.95,South,180,3.5,3.5,51,0.00,CLR,OVC,0.00,WeatherDisplay:10.37,2013-07-01 21:10:00,
2013-07-01 14:15:00,88.0,68.1,28.95,West,270,2.4,2.4,52,0.00,CLR,OVC,0.00,WeatherDisplay:10.37,2013-07-01 21:15:00,
2013-07-01 14:20:00,88.3,67.9,28.95,SSE,158,2.3,2.3,51,0.00,CLR,OVC,0.00,WeatherDisplay:10.37,2013-07-01 21:20:00,
2013-07-01 14:25:00,89.1,68.6,28.95,West,270,2.3,2.3,51,0.00,CLR,OVC,0.00,WeatherDisplay:10.37,2013-07-01 21:25:00,
2013-07-01 14:30:00,89.6,67.9,28.95,West,270,3.5,3.5,49,0.00,CLR,OVC,0.00,WeatherDisplay:10.37,2013-07-01 21:30:00,
2013-07-01 14:35:00,90.0,68.2,28.95,WSW,248,2.3,2.3,49,0.00,CLR,OVC,0.00,WeatherDisplay:10.37,2013-07-01 21:35:00,
2013-07-01 14:40:00,89.8,67.5,28.95,WNW,292,4.6,4.6,48,0.00,CLR,OVC,0.00,WeatherDisplay:10.37,2013-07-01 21:40:00,
2013-07-01 14:45:00,89.8,67.5,28.95,WSW,248,3.5,3.5,48,0.00,CLR,OVC,0.00,WeatherDisplay:10.37,2013-07-01 21:45:00,
2013-07-01 14:50:00,90.3,67.4,28.95,WSW,248,3.5,3.5,47,0.00,CLR,OVC,0.00,WeatherDisplay:10.37,2013-07-01 21:50:00,
2013-07-01 14:55:00,90.3,68.0,28.95,ENE,68,2.3,2.3,48,0.00,CLR,OVC,0.00,WeatherDisplay:10.37,2013-07-01 21:55:00,
2013-07-01 15:00:00,90.7,68.3,28.95,SSE,158,2.3,2.3,48,0.00,CLR,OVC,0.00,WeatherDisplay:10.37,2013-07-01 22:00:00,
2013-07-01 15:05:00,91.8,69.3,28.95,SW,225,2.3,2.3,48,0.00,CLR,OVC,0.00,WeatherDisplay:10.37,2013-07-01 22:05:00,
2013-07-01 15:10:00,93.0,69.2,28.96,WSW,248,2.3,2.3,46,0.00,CLR,OVC,0.00,WeatherDisplay:10.37,2013-07-01 22:10:00,
2013-07-01 15:15:00,93.2,68.7,28.95,WSW,248,1.2,1.2,45,0.00,CLR,OVC,0.00,WeatherDisplay:10.37,2013-07-01 22:15:00,
2013-07-01 15:20:00,93.6,69.0,28.95,SW,225,2.3,2.3,45,0.00,CLR,OVC,0.00,WeatherDisplay:10.37,2013-07-01 22:20:00,
2013-07-01 15:25:00,93.7,68.5,28.95,WSW,248,2.3,2.3,44,0.00,CLR,OVC,0.00,WeatherDisplay:10.37,2013-07-01 22:25:00,
2013-07-01 15:30:00,93.2,68.7,28.95,SSE,158,2.3,2.3,45,0.00,CLR,OVC,0.00,WeatherDisplay:10.37,2013-07-01 22:30:00,
2013-07-01 15:35:00,93.9,70.0,28.95,WSW,248,1.2,1.2,46,0.00,CLR,OVC,0.00,WeatherDisplay:10.37,2013-07-01 22:35:00,
2013-07-01 15:40:00,94.8,68.1,28.95,WNW,292,3.8,3.8,42,0.00,CLR,OVC,0.00,WeatherDisplay:10.37,2013-07-01 22:40:00,
2013-07-01 15:45:00,94.3,68.3,28.95,WNW,292,2.3,2.3,43,0.00,CLR,OVC,0.00,WeatherDisplay:10.37,2013-07-01 22:45:00,
2013-07-01 15:50:00,94.1,68.9,28.96,West,270,2.9,2.9,44,0.00,CLR,OVC,0.00,WeatherDisplay:10.37,2013-07-01 22:50:00,
2013-07-01 15:55:00,94.6,68.7,28.96,NNW,338,2.3,2.3,43,0.00,CLR,OVC,0.00,WeatherDisplay:10.37,2013-07-01 22:55:00,
2013-07-01 16:00:00,94.8,68.8,28.96,West,270,2.3,2.3,43,0.00,CLR,OVC,0.00,WeatherDisplay:10.37,2013-07-01 23:00:00,
2013-07-01 16:05:00,95.4,68.6,28.96,SW,225,2.3,2.3,42,0.00,CLR,OVC,0.00,WeatherDisplay:10.37,2013-07-01 23:05:00,
2013-07-01 16:10:00,95.0,69.0,28.96,West,270,2.3,2.3,43,0.00,CLR,OVC,0.00,WeatherDisplay:10.37,2013-07-01 23:10:00,
2013-07-01 16:15:00,94.6,67.3,28.95,SE,135,4.5,4.5,41,0.00,CLR,OVC,0.00,WeatherDisplay:10.37,2013-07-01 23:15:00,
2013-07-01 16:20:00,94.3,67.7,28.95,South,180,2.3,2.3,42,0.00,CLR,OVC,0.00,WeatherDisplay:10.37,2013-07-01 23:20:00,
2013-07-01 16:25:00,94.8,68.1,28.95,WNW,292,3.5,3.5,42,0.00,CLR,OVC,0.00,WeatherDisplay:10.37,2013-07-01 23:25:00,
2013-07-01 16:30:00,95.4,69.3,28.95,West,270,2.3,2.3,43,0.00,CLR,OVC,0.00,WeatherDisplay:10.37,2013-07-01 23:30:00,
2013-07-01 16:35:00,96.8,69.2,28.95,West,270,2.4,2.4,41,0.00,CLR,OVC,0.00,WeatherDisplay:10.37,2013-07-01 23:35:00,
2013-07-01 16:40:00,97.7,70.7,28.95,SW,225,1.2,1.4,42,0.00,CLR,OVC,0.00,WeatherDisplay:10.37,2013-07-01 23:40:00,
2013-07-01 16:45:00,98.2,68.3,28.95,WNW,292,4.6,4.6,38,0.00,CLR,OVC,0.00,WeatherDisplay:10.37,2013-07-01 23:45:00,
2013-07-01 16:51:00,97.2,68.8,28.95,SW,225,3.5,3.5,40,0.00,CLR,OVC,0.00,WeatherDisplay:10.37,2013-07-01 23:51:00,
2013-07-01 16:56:00,97.2,68.8,28.95,WSW,248,2.3,2.3,40,0.00,CLR,OVC,0.00,WeatherDisplay:10.37,2013-07-01 23:56:00,
2013-07-01 17:01:00,96.8,68.5,28.95,WSW,248,2.3,2.3,40,0.00,CLR,OVC,0.00,WeatherDisplay:10.37,2013-07-02 00:01:00,
2013-07-01 17:06:00,96.1,68.6,28.95,WSW,248,2.4,2.4,41,0.00,CLR,OVC,0.00,WeatherDisplay:10.37,2013-07-02 00:06:00,
2013-07-01 17:11:00,96.8,69.9,28.95,SSW,202,1.2,1.2,42,0.00,CLR,OVC,0.00,WeatherDisplay:10.37,2013-07-02 00:11:00,
2013-07-01 17:16:00,97.2,69.5,28.95,WSW,248,2.3,2.3,41,0.00,CLR,OVC,0.00,WeatherDisplay:10.37,2013-07-02 00:16:00,
2013-07-01 17:21:00,96.8,69.2,28.95,WNW,292,2.3,2.3,41,0.00,CLR,OVC,0.00,WeatherDisplay:10.37,2013-07-02 00:21:00,
2013-07-01 17:26:00,95.4,67.9,28.95,WSW,248,3.5,3.5,41,0.00,CLR,OVC,0.00,WeatherDisplay:10.37,2013-07-02 00:26:00,
2013-07-01 17:31:00,94.3,67.0,28.95,WNW,292,4.6,4.6,41,0.00,CLR,OVC,0.00,WeatherDisplay:10.37,2013-07-02 00:31:00,
2013-07-01 17:36:00,93.9,67.3,28.95,SW,225,2.3,2.3,42,0.00,CLR,OVC,0.00,WeatherDisplay:10.37,2013-07-02 00:36:00,
2013-07-01 17:41:00,94.5,67.8,28.95,SE,135,2.3,2.3,42,0.00,CLR,OVC,0.00,WeatherDisplay:10.37,2013-07-02 00:41:00,
2013-07-01 17:46:00,94.6,67.3,28.95,SSW,202,3.5,3.5,41,0.00,CLR,OVC,0.00,WeatherDisplay:10.37,2013-07-02 00:46:00,
2013-07-01 17:51:00,94.8,68.1,28.95,WSW,248,2.3,2.3,42,0.00,CLR,OVC,0.00,WeatherDisplay:10.37,2013-07-02 00:51:00,
2013-07-01 17:56:00,95.0,66.9,28.95,WSW,248,5.8,5.8,40,0.00,CLR,OVC,0.00,WeatherDisplay:10.37,2013-07-02 00:56:00,
2013-07-01 18:01:00,94.3,66.3,28.95,WNW,292,4.6,4.6,40,0.00,CLR,OVC,0.00,WeatherDisplay:10.37,2013-07-02 01:01:00,
2013-07-01 18:06:00,93.6,66.3,28.95,West,270,1.4,1.4,41,0.00,CLR,OVC,0.00,WeatherDisplay:10.37,2013-07-02 01:06:00,
2013-07-01 18:11:00,93.6,66.3,28.95,South,180,2.3,2.3,41,0.00,CLR,OVC,0.00,WeatherDisplay:10.37,2013-07-02 01:11:00,
2013-07-01 18:16:00,92.7,65.5,28.95,West,270,3.5,3.5,41,0.00,CLR,OVC,0.00,WeatherDisplay:10.37,2013-07-02 01:16:00,
2013-07-01 18:21:00,92.7,66.9,28.95,North,0,2.3,2.3,43,0.00,CLR,OVC,0.00,WeatherDisplay:10.37,2013-07-02 01:21:00,
2013-07-01 18:26:00,93.0,66.5,28.95,SE,135,2.3,2.3,42,0.00,CLR,OVC,0.00,WeatherDisplay:10.37,2013-07-02 01:26:00,
2013-07-01 18:31:00,92.8,65.7,28.95,South,180,3.5,3.5,41,0.00,CLR,OVC,0.00,WeatherDisplay:10.37,2013-07-02 01:31:00,
2013-07-01 18:36:00,92.1,65.0,28.96,NW,315,3.1,3.1,41,0.00,CLR,OVC,0.00,WeatherDisplay:10.37,2013-07-02 01:36:00,
2013-07-01 18:41:00,92.1,65.0,28.96,NW,315,2.3,2.3,41,0.00,CLR,OVC,0.00,WeatherDisplay:10.37,2013-07-02 01:41:00,
2013-07-01 18:46:00,91.8,64.7,28.96,SSE,158,2.3,2.3,41,0.00,CLR,OVC,0.00,WeatherDisplay:10.37,2013-07-02 01:46:00,
2013-07-01 18:51:00,91.8,64.7,28.96,WNW,292,2.6,2.6,41,0.00,CLR,OVC,0.00,WeatherDisplay:10.37,2013-07-02 01:51:00,
2013-07-01 18:56:00,91.0,64.1,28.96,WSW,248,3.5,3.5,41,0.00,CLR,OVC,0.00,WeatherDisplay:10.37,2013-07-02 01:56:00,
2013-07-01 19:01:00,90.5,64.3,28.96,WSW,248,3.5,3.5,42,0.00,CLR,OVC,0.00,WeatherDisplay:10.37,2013-07-02 02:01:00,
2013-07-01 19:06:00,90.3,64.1,28.96,SW,225,2.3,2.3,42,0.00,CLR,OVC,0.00,WeatherDisplay:10.37,2013-07-02 02:06:00,
2013-07-01 19:11:00,90.0,64.5,28.96,SSE,158,2.4,2.4,43,0.00,CLR,OVC,0.00,WeatherDisplay:10.37,2013-07-02 02:11:00,
2013-07-01 19:16:00,89.6,64.1,28.97,SSW,202,2.0,2.0,43,0.00,CLR,OVC,0.00,WeatherDisplay:10.37,2013-07-02 02:16:00,
2013-07-01 19:21:00,88.2,63.5,28.97,SE,135,3.5,3.5,44,0.00,CLR,OVC,0.00,WeatherDisplay:10.37,2013-07-02 02:21:00,
2013-07-01 19:26:00,86.7,62.8,28.96,West,270,2.3,2.3,45,0.00,CLR,OVC,0.00,WeatherDisplay:10.37,2013-07-02 02:26:00,
2013-07-01 19:31:00,86.0,62.8,28.97,WSW,248,4.6,4.6,46,0.00,CLR,OVC,0.00,WeatherDisplay:10.37,2013-07-02 02:31:00,
2013-07-01 19:36:00,86.0,62.8,28.97,ENE,68,2.3,2.3,46,0.00,CLR,OVC,0.00,WeatherDisplay:10.37,2013-07-02 02:36:00,
2013-07-01 19:41:00,85.6,62.5,28.97,South,180,3.5,3.5,46,0.00,CLR,OVC,0.00,WeatherDisplay:10.37,2013-07-02 02:41:00,
2013-07-01 19:46:00,85.6,62.5,28.97,SSW,202,1.2,1.2,46,0.00,CLR,OVC,0.00,WeatherDisplay:10.37,2013-07-02 02:46:00,
2013-07-01 19:51:00,85.6,62.5,28.97,West,270,2.3,2.4,46,0.00,CLR,OVC,0.00,WeatherDisplay:10.37,2013-07-02 02:51:00,
2013-07-01 19:56:00,84.6,61.5,28.97,NE,45,2.3,2.3,46,0.00,CLR,OVC,0.00,WeatherDisplay:10.37,2013-07-02 02:56:00,
2013-07-01 20:01:00,84.0,61.0,28.97,SW,225,2.3,2.3,46,0.00,CLR,OVC,0.00,WeatherDisplay:10.37,2013-07-02 03:01:00,
2013-07-01 20:06:00,84.2,61.2,28.97,SSW,202,2.3,2.3,46,0.00,CLR,OVC,0.00,WeatherDisplay:10.37,2013-07-02 03:06:00,
2013-07-01 20:11:00,84.2,61.2,28.97,West,270,2.3,2.3,46,0.00,CLR,OVC,0.00,WeatherDisplay:10.37,2013-07-02 03:11:00,
2013-07-01 20:16:00,83.7,61.3,28.97,NW,315,2.3,2.3,47,0.00,CLR,OVC,0.00,WeatherDisplay:10.37,2013-07-02 03:16:00,
2013-07-01 20:21:00,82.9,61.2,28.97,West,270,1.8,1.8,48,0.00,CLR,OVC,0.00,WeatherDisplay:10.37,2013-07-02 03:21:00,
2013-07-01 20:26:00,82.6,61.5,28.97,WSW,248,2.9,2.9,49,0.00,CLR,OVC,0.00,WeatherDisplay:10.37,2013-07-02 03:26:00,
2013-07-01 20:31:00,80.6,60.2,28.98,SSW,202,3.5,3.5,50,0.00,CLR,OVC,0.00,WeatherDisplay:10.37,2013-07-02 03:31:00,
2013-07-01 20:36:00,79.5,60.4,28.98,WSW,248,1.2,1.2,52,0.00,CLR,OVC,0.00,WeatherDisplay:10.37,2013-07-02 03:36:00,
2013-07-01 20:41:00,78.3,60.2,28.97,SSE,158,3.5,3.5,54,0.00,CLR,OVC,0.00,WeatherDisplay:10.37,2013-07-02 03:41:00,
2013-07-01 20:46:00,76.3,59.4,28.97,SW,225,2.3,2.3,56,0.00,CLR,OVC,0.00,WeatherDisplay:10.37,2013-07-02 03:46:00,
2013-07-01 20:51:00,75.2,59.9,28.97,NW,315,2.3,2.3,59,0.00,CLR,OVC,0.00,WeatherDisplay:10.37,2013-07-02 03:51:00,
2013-07-01 20:56:00,74.1,58.9,28.97,WNW,292,1.4,1.4,59,0.00,CLR,OVC,0.00,WeatherDisplay:10.37,2013-07-02 03:56:00,
2013-07-01 21:01:00,73.6,59.3,28.97,SSW,202,1.4,1.4,61,0.00,CLR,OVC,0.00,WeatherDisplay:10.37,2013-07-02 04:01:00,
2013-07-01 21:06:00,72.9,59.5,28.97,West,270,2.3,2.3,63,0.00,CLR,OVC,0.00,WeatherDisplay:10.37,2013-07-02 04:06:00,
2013-07-01 21:11:00,72.1,59.7,28.97,West,270,2.0,2.0,65,0.00,CLR,OVC,0.00,WeatherDisplay:10.37,2013-07-02 04:11:00,
2013-07-01 21:16:00,71.6,59.2,28.97,WSW,248,1.2,1.2,65,0.00,CLR,OVC,0.00,WeatherDisplay:10.37,2013-07-02 04:16:00,
2013-07-01 21:21:00,71.1,59.1,28.97,SW,225,2.3,2.3,66,0.00,CLR,OVC,0.00,WeatherDisplay:10.37,2013-07-02 04:21:00,
2013-07-01 21:26:00,70.3,58.9,28.97,WSW,248,2.3,2.3,67,0.00,CLR,OVC,0.00,WeatherDisplay:10.37,2013-07-02 04:26:00,
2013-07-01 21:31:00,69.8,59.2,28.97,WSW,248,3.5,3.5,69,0.00,CLR,OVC,0.00,WeatherDisplay:10.37,2013-07-02 04:31:00,
2013-07-01 21:36:00,69.4,59.2,28.97,WNW,292,2.4,2.4,70,0.00,CLR,OVC,0.00,WeatherDisplay:10.37,2013-07-02 04:36:00,
2013-07-01 21:41:00,68.9,59.1,28.97,West,270,3.5,3.5,71,0.00,CLR,OVC,0.00,WeatherDisplay:10.37,2013-07-02 04:41:00,
2013-07-01 21:46:00,68.5,59.5,28.97,West,270,5.8,5.8,73,0.00,CLR,OVC,0.00,WeatherDisplay:10.37,2013-07-02 04:46:00,
2013-07-01 21:51:00,68.0,59.8,28.98,WSW,248,5.4,5.4,75,0.00,CLR,OVC,0.00,WeatherDisplay:10.37,2013-07-02 04:51:00,
2013-07-01 21:56:00,67.6,59.1,28.98,SSW,202,3.5,3.5,74,0.00,CLR,OVC,0.00,WeatherDisplay:10.37,2013-07-02 04:56:00,
2013-07-01 22:01:00,67.3,59.1,28.98,NW,315,4.6,4.6,75,0.00,CLR,OVC,0.00,WeatherDisplay:10.37,2013-07-02 05:01:00,
2013-07-01 22:06:00,67.1,58.5,28.98,WSW,248,2.3,2.3,74,0.00,CLR,OVC,0.00,WeatherDisplay:10.37,2013-07-02 05:06:00,
2013-07-01 22:11:00,66.9,58.4,28.98,WNW,292,2.3,2.3,74,0.00,CLR,OVC,0.00,WeatherDisplay:10.37,2013-07-02 05:11:00,
2013-07-01 22:16:00,66.6,58.0,28.98,SE,135,1.2,1.2,74,0.00,CLR,OVC,0.00,WeatherDisplay:10.37,2013-07-02 05:16:00,
2013-07-01 22:21:00,66.4,58.6,28.98,West,270,3.5,3.5,76,0.00,CLR,OVC,0.00,WeatherDisplay:10.37,2013-07-02 05:21:00,
2013-07-01 22:26:00,66.2,58.4,28.98,West,270,2.3,2.3,76,0.00,CLR,OVC,0.00,WeatherDisplay:10.37,2013-07-02 05:26:00,
2013-07-01 22:32:00,65.8,58.1,28.98,WSW,248,4.6,4.6,76,0.00,CLR,OVC,0.00,WeatherDisplay:10.37,2013-07-02 05:32:00,
2013-07-01 22:37:00,65.7,58.3,28.98,West,270,2.3,2.3,77,0.00,CLR,OVC,0.00,WeatherDisplay:10.37,2013-07-02 05:37:00,
2013-07-01 22:42:00,65.5,58.4,28.98,West,270,2.3,2.3,78,0.00,CLR,OVC,0.00,WeatherDisplay:10.37,2013-07-02 05:42:00,
2013-07-01 22:47:00,65.1,57.7,28.98,ESE,112,1.2,1.2,77,0.00,CLR,OVC,0.00,WeatherDisplay:10.37,2013-07-02 05:47:00,
2013-07-01 22:52:00,65.1,58.4,28.98,WSW,248,4.6,4.6,79,0.00,CLR,OVC,0.00,WeatherDisplay:10.37,2013-07-02 05:52:00,
2013-07-01 22:57:00,64.9,58.3,28.99,WSW,248,2.3,2.3,79,0.00,CLR,OVC,0.00,WeatherDisplay:10.37,2013-07-02 05:57:00,
2013-07-01 23:02:00,64.9,58.3,28.99,West,270,2.3,2.3,79,0.00,CLR,OVC,0.00,WeatherDisplay:10.37,2013-07-02 06:02:00,
2013-07-01 23:07:00,64.8,58.1,28.99,West,270,1.4,1.4,79,0.00,CLR,OVC,0.00,WeatherDisplay:10.37,2013-07-02 06:07:00,
2013-07-01 23:12:00,64.8,58.1,28.99,WSW,248,2.3,2.3,79,0.00,CLR,OVC,0.00,WeatherDisplay:10.37,2013-07-02 06:12:00,
2013-07-01 23:17:00,64.8,58.4,28.99,NW,315,1.2,1.2,80,0.00,CLR,OVC,0.00,WeatherDisplay:10.37,2013-07-02 06:17:00,
2013-07-01 23:22:00,64.8,58.1,28.99,SSW,202,2.3,2.3,79,0.00,CLR,OVC,0.00,WeatherDisplay:10.37,2013-07-02 06:22:00,
2013-07-01 23:27:00,64.6,58.3,28.99,SW,225,3.5,3.5,80,0.00,CLR,OVC,0.00,WeatherDisplay:10.37,2013-07-02 06:27:00,
2013-07-01 23:32:00,64.4,58.1,28.99,SW,225,1.6,1.6,80,0.00,CLR,OVC,0.00,WeatherDisplay:10.37,2013-07-02 06:32:00,
2013-07-01 23:37:00,64.0,58.1,29.00,West,270,4.3,4.3,81,0.00,CLR,OVC,0.00,WeatherDisplay:10.37,2013-07-02 06:37:00,
2013-07-01 23:42:00,63.7,57.4,29.00,West,270,2.3,2.3,80,0.00,CLR,OVC,0.00,WeatherDisplay:10.37,2013-07-02 06:42:00,
2013-07-01 23:47:00,63.5,57.6,29.00,East,90,2.3,2.3,81,0.00,CLR,OVC,0.00,WeatherDisplay:10.37,2013-07-02 06:47:00,
2013-07-01 23:52:00,63.1,57.2,29.00,SW,225,1.8,1.8,81,0.00,CLR,OVC,0.00,WeatherDisplay:10.37,2013-07-02 06:52:00,
2013-07-01 23:57:00,63.0,56.7,29.00,East,90,2.3,2.3,80,0.00,CLR,OVC,0.00,WeatherDisplay:10.37,2013-07-02 06:57:00,